This is the latest recevied weather packets stored in our database for station/object KE8ZLU. If no packets are shown the sender has not sent any weather packets the latest 10 day(s).
| Time | Temp. | Humidity | Pressure | Rain* | Wind** | Luminosity | Snow |
|---|---|---|---|---|---|---|---|
| 1778143161 | 1.67° C | 88% | 1014.2 hPa | 0 mm | - | 0 W/m² | - |
| 1778142857 | 1.67° C | 87% | 1014.1 hPa | 0 mm | - | 0 W/m² | - |
| 1778142554 | 1.67° C | 87% | 1014.2 hPa | 0 mm | - | 0 W/m² | - |
| 1778142249 | 2.22° C | 86% | 1014.1 hPa | 0 mm | - | 0 W/m² | - |
| 1778141947 | 2.22° C | 85% | 1014.1 hPa | 0 mm | - | 0 W/m² | - |
| 1778141643 | 2.22° C | 84% | 1014.3 hPa | 0 mm | - | 0 W/m² | - |
| 1778141339 | 2.78° C | 83% | 1014.2 hPa | 0 mm | - | 0 W/m² | - |
| 1778141036 | 2.78° C | 83% | 1014.3 hPa | 0 mm | - | 0 W/m² | - |
| 1778140731 | 2.78° C | 81% | 1014.3 hPa | 0 mm | - | 0 W/m² | - |
| 1778140427 | 3.33° C | 82% | 1014.1 hPa | 0 mm | - | 0 W/m² | - |
| 1778140124 | 3.89° C | 83% | 1014.2 hPa | 0 mm | - | 0 W/m² | - |
| 1778139822 | 3.89° C | 80% | 1014 hPa | 0 mm | - | 0 W/m² | - |
| 1778139519 | 3.89° C | 78% | 1014.2 hPa | 0 mm | - | 0 W/m² | - |
| 1778139215 | 3.89° C | 79% | 1014.1 hPa | 0 mm | - | 0 W/m² | - |
| 1778138912 | 4.44° C | 78% | 1014.2 hPa | 0 mm | - | 0 W/m² | - |
| 1778138610 | 4.44° C | 77% | 1014 hPa | 0 mm | - | 0 W/m² | - |
| 1778138307 | 4.44° C | 75% | 1014.2 hPa | 0 mm | - | 0 W/m² | - |
| 1778138004 | 4.44° C | 75% | 1014.3 hPa | 0 mm | - | 0 W/m² | - |
| 1778137700 | 3.89° C | 76% | 1014.1 hPa | 0 mm | - | 0 W/m² | - |
| 1778137398 | 3.89° C | 78% | 1014.3 hPa | 0 mm | - | 0 W/m² | - |
| 1778137094 | 3.89° C | 78% | 1014.3 hPa | 0 mm | - | 0 W/m² | - |
| 1778136791 | 3.89° C | 78% | 1014.4 hPa | 0 mm | - | 0 W/m² | - |
| 1778136488 | 3.89° C | 77% | 1014.3 hPa | 0 mm | - | 0 W/m² | - |
| 1778136187 | 4.44° C | 77% | 1014.2 hPa | 0 mm | - | 0 W/m² | - |
| 1778135884 | 5° C | 75% | 1014.3 hPa | 0 mm | - | 0 W/m² | - |
* Rain latest hour (hover to see other rain measurements)
** Current wind speed in m/s (hover to see current wind gust speed)